Tracking 21998 objects as of 1-Dec-2020
HD Live streaming from Space Station
objects crossing your sky now

OSCAR 24

Track OSCAR 24 now!
10-day predictions
OSCAR 24 is classified as:


NORAD ID: 15936
Int'l Code: 1985-066B
Perigee: 1,006.5 km
Apogee: 1,259.5 km
Inclination: 90.2 °
Period: 107.8 minutes
Semi major axis: 7503 km
RCS: 1.6504 m2 (large)
Launch date: August 3, 1985
Source: United States (US)
Launch site: AIR FORCE WESTERN TEST RANGE (AFWTR)
aabbcc
Your satellite tracking list
Your tracking list is empty




NASA's NSSDC Master Catalog

Two Line Element Set (TLE):
1 15936U 85066B   20336.16936397  .00000065  00000-0  10449-3 0  9999
2 15936  90.1589  60.8975 0168545 231.8999 187.9132 13.35566049721354
Source of the keplerian elements: AFSPC